919  
ASUS43 KEAX 261215  
RWREAX  
 
WEATHER ROUNDUP FOR EASTERN KANSAS AND NORTHWEST MISSOURI  
NATIONAL WEATHER SERVICE KANSAS CITY/PLEASANT HILL MO  
600 AM CST TUE JAN 26 2021  
 
KSZ040-057-103>105-MOZ028-029-037-043-261300-   
..KANSAS CITY METROPOLITAN AREA
 
 
 
CITY SKY/WX TMP DP RH WIND PRES REMARKS
 
K.C. INTL FLURRIES 26 22 84 N12 29.86R WCI 16  
6HR MIN TEMP: 26; 6HR MAX TEMP: 30; 6HR PCP: 0.02;  
 
K.C. DOWNTOWN CLOUDY 27 22 81 NW12 29.86R WCI 17  
6HR MIN TEMP: 27; 6HR MAX TEMP: 30; 6HR PCP: TRACE;  
 
LEES SUMMIT CLOUDY 28 25 88 N10 29.84R WCI 19  
6HR MIN TEMP: 28; 6HR MAX TEMP: 32; 6HR PCP: 0.01;  
 
OLATHE - IXD CLOUDY 28 24 85 N14 29.86R WCI 17  
6HR MIN TEMP: 28; 6HR MAX TEMP: 32; 6HR PCP: TRACE;  
 
OLATHE - OJC CLOUDY 28 26 92 NW8 29.84R WCI 20  
6HR MIN TEMP: 28; 6HR MAX TEMP: 32; 6HR PCP: TRACE;  
 
LAWRENCE CLOUDY 26 24 92 NW15 29.89R WCI 14  
 

 
 
MOZ001>008-011>017-020>025-030>033-038>040-044>046-053-054-261300-   
..NORTHERN AND CENTRAL MISSOURI
 
 
 
CITY SKY/WX TMP DP RH WIND PRES REMARKS
 
ST. JOSEPH CLOUDY 22 17 81 N13 29.91R WCI 10  
6HR MIN TEMP: 22; 6HR MAX TEMP: 28; 6HR PCP: 0.01;  
 
MOSBY CLOUDY 27 23 86 N10 29.88R WCI 17  
HARRISONVILLE CLOUDY N/A N/A N/A NW10 29.86R HAZE  
WHITEMAN AFB LGT SNOW 30 27 88 NW10 29.78R WCI 21  
6HR MIN TEMP: 30; 6HR MAX TEMP: 34; 6HR PCP: TRACE;  
 
CLINTON CLOUDY 34 32 93 NW12 29.81R FOG WCI 25  
SEDALIA CLOUDY 31 28 89 NW9 29.82R WCI 23  
6HR MIN TEMP: 31; 6HR MAX TEMP: 35;  
 
MARSHALL LGT SNOW 28 27 93 CALM 29.82R  
CHILLICOTHE N/A 23 19 85 N7 29.86R WCI 15  
6HR MIN TEMP: 23; 6HR MAX TEMP: 29; 6HR PCP: 0.03;  
 
MOBERLY CLOUDY 28 25 86 CALM 29.79R  
KIRKSVILLE LGT SNOW 23 20 88 N9 29.79R FOG WCI 13  
6HR MIN TEMP: 23; 6HR MAX TEMP: 28; 6HR PCP: 0.03;  
 

 
 
MOZ041-047>049-056>058-063>065-088>090-097-261300-   
..EASTERN AND SOUTHERN MISSOURI
 
 
 
CITY SKY/WX TMP DP RH WIND PRES REMARKS
 
ST. LOUIS INTL CLOUDY 36 33 89 W9 29.72R FOG WCI 29  
6HR MIN TEMP: 36; 6HR MAX TEMP: 37; 6HR PCP: TRACE;  
 
SPIRIT OF STL CLOUDY 37 35 92 NW9 29.72R WCI 30  
COLUMBIA CLOUDY 33 50 100 NW9 29.76R HAZE WCI 25  
JEFFERSON CITY CLOUDY 37 32 82 NW12 29.78R WCI 29  
MEXICO CLOUDY 32 32 100 CALM 29.75R  
HANNIBAL LGT SNOW 30 28 93 NW6 29.77R WCI 24  
ROLLA CLOUDY 38 35 89 W10 29.76R WCI 31  
LEBANON CLOUDY 36 34 93 W12G17 29.79R WCI 27  
OSAGE BEACH CLOUDY 36 34 92 W12 29.80R WCI 28  
SPRINGFIELD CLOUDY 36 32 85 W14G22 29.80R WCI 27  
BRANSON MOCLDY 36 32 87 W6 29.83R WCI 31  
JOPLIN CLOUDY 34 30 85 W12 29.86R WCI 25  
WEST PLAINS MOCLDY 40 35 83 W8 29.79R WCI 34  
SIKESTON FOG 45 45 100 SW10 29.80R VSB 1/2  
 

 
 
IAZ060-094-KSZ022-034>040-054-083-096-NEZ052-066-093-261300-    
..KANSAS...SOUTHEAST NEBRASKA AND IOWA
 
 
 
CITY SKY/WX TMP DP RH WIND PRES REMARKS
 
TOPEKA CLOUDY 24 19 81 N14G23 29.91R WCI 12  
6HR MIN TEMP: 24; 6HR MAX TEMP: 29; 6HR PCP: TRACE;  
 
MANHATTAN LGT SNOW 23 18 81 N6 29.94R WCI 16  
EMPORIA CLOUDY 27 24 89 N14 29.87R WCI 16  
OTTAWA CLOUDY 28 28 100 NW13 29.86R WCI 18  
CHANUTE CLOUDY 33 29 85 NW10 29.87R WCI 25  
SALINA PTCLDY 20 16 84 N14 29.95R WCI 7  
WICHITA CLOUDY 27 22 81 NW15G24 29.89R WCI 15  
OMAHA FLURRIES 17 13 84 N13 29.97R WCI 4  
LINCOLN CLOUDY 16 11 80 N13 29.99R WCI 2  
FALLS CITY CLOUDY 19 16 88 NW10 29.93R WCI 7  
LAMONI LGT SNOW 20 16 84 N12 29.85R FOG WCI 8  
DES MOINES LGT SNOW 20 16 84 N16 29.89R FOG WCI 6  
 

 
 
 
 
CLICK HERE TO GO TO PREVIOUS BULLETINS.

The Nexlab MO Page
The Nexlab KS Page Main Text Page